Starlink 31550

operational
NORAD ID: 59338 Int'l Des: 2024-057 Owner: SPXS Country: US Constellation: starlink
LEOCIRCULAR

Starlink 31550について

説明を読み込み中...

リアルタイム位置

3D地球を読み込み中...

次回通過

高度履歴

Altitude vs Time

uPlot chart will show altitude changes over time

軌道要素

1 59338U 24057U 25352.53663074 -.00000746 00000-0 -17577-4 0 9997
2 59338 43.0041 285.7407 0001358 279.0168 81.0530 15.27579181 97420
Epoch: Dec 18, 2025 • Age: 11 hours

現在のステータス

高度 486.7 km
速度 7.63 km/s
衛星直下点 41.65°N, 96.21°W
打ち上げ日 Mar 25, 2024
運用期間 1.7 years
タイプ internet

技術仕様

分類 Payload
質量 730.00 kg
乾燥質量 700.00 kg
総質量 730.00 kg
長さ 0.30 m
直径 4.10 m
スパン 29.00 m
形状 Box + pan
製造者 SPXS
バスタイプ Starlink V2M
フェーズステータス In Orbit
所有者/国 SPXS/US

大規模コンステレーション

Loading constellations...